Main page
METAR-TAF:

METAR-TAF

Airports :

Leconfield, England

latitude: 53-52-37N, longitude: 0-26-15W, elevation: 7 m

Current weather observation

The report was made 40 minutes ago, at 01:50 UTC
Wind 11 kt from the North
Temperature 14°C
Humidity 100%
Pressure 1010 hPa
Visibility: 6000 m
light rain

METAR: EGXV 240150Z AUTO 01011KT 6000 -RA BKN005/// SCT014/// 14/14 Q1010

Time: 03:30 (02:30 UTC)


TAF: missing

Weather observations and forecasts of more than 4000 airports (METAR and TAF reports).

The available stations are represented by yellow and red dots on the map.

Hover mouse over dot to see the name of the station.

Then click to see weather observations and forecasts.

To change the map : click on the green buttons with a black cross to zoom in, on the green button with a dash to zoom out, or on the green arrows for adjacent maps.


METAR-TAF: